Meteo pe oră la Abingdon

Astăzi, 24 Iulie, Sâmbătă

Timp Temperatura Precipitaţii Vânt Presiune Umiditate
00:00 +16°C° 0 mm 6 m/s 752 mmHg 79%
01:00 +15°C° 0.1 mm 6 m/s 752 mmHg 82%
02:00 +15°C° 0.1 mm 6 m/s 752 mmHg 84%
03:00 +14°C° 0.1 mm 6 m/s 751 mmHg 87%
04:00 +15°C° 0.8 mm 6 m/s 751 mmHg 89%
05:00 +15°C° 0.8 mm 5 m/s 751 mmHg 91%
06:00 +15°C° 0.8 mm 5 m/s 751 mmHg 93%
07:00 +16°C° 0.6 mm 5 m/s 751 mmHg 91%
08:00 +16°C° 0.6 mm 5 m/s 751 mmHg 90%
09:00 +18°C° 0.6 mm 4 m/s 751 mmHg 88%
10:00 +19°C° 0.2 mm 4 m/s 751 mmHg 87%
11:00 +19°C° 0.2 mm 4 m/s 751 mmHg 86%
12:00 +20°C° 0.2 mm 4 m/s 751 mmHg 84%
13:00 +20°C° 0.3 mm 4 m/s 751 mmHg 81%
14:00 +21°C° 0.3 mm 3 m/s 750 mmHg 78%
15:00 +22°C° 0.3 mm 3 m/s 750 mmHg 74%
16:00 +22°C° 1.6 mm 3 m/s 750 mmHg 76%
17:00 +21°C° 1.6 mm 2 m/s 750 mmHg 77%
18:00 +21°C° 1.6 mm 2 m/s 750 mmHg 79%
19:00 +20°C° 0.6 mm 2 m/s 750 mmHg 83%
20:00 +19°C° 0.6 mm 2 m/s 750 mmHg 87%
21:00 +17°C° 0.6 mm 2 m/s 751 mmHg 90%
22:00 +17°C° 0.1 mm 2 m/s 750 mmHg 92%
23:00 +17°C° 0.1 mm 3 m/s 750 mmHg 94%

Mâine, 25 Iulie, Duminică

Timp Temperatura Precipitaţii Vânt Presiune Umiditate
00:00 +16°C° 0.1 mm 3 m/s 750 mmHg 96%
01:00 +16°C° 0.4 mm 3 m/s 750 mmHg 97%
02:00 +16°C° 0.4 mm 3 m/s 750 mmHg 97%
03:00 +16°C° 0.4 mm 3 m/s 750 mmHg 97%
04:00 +16°C° 0.1 mm 3 m/s 750 mmHg 97%
05:00 +16°C° 0.1 mm 3 m/s 750 mmHg 96%
06:00 +16°C° 0.1 mm 3 m/s 750 mmHg 96%
07:00 +17°C° 0 mm 4 m/s 750 mmHg 93%
08:00 +17°C° 0 mm 4 m/s 750 mmHg 89%
09:00 +18°C° 0 mm 4 m/s 750 mmHg 86%
10:00 +19°C° 0.1 mm 4 m/s 751 mmHg 83%
11:00 +19°C° 0.1 mm 4 m/s 751 mmHg 80%
12:00 +20°C° 0.1 mm 4 m/s 751 mmHg 77%
13:00 +21°C° 0.1 mm 4 m/s 751 mmHg 74%
14:00 +21°C° 0.1 mm 4 m/s 751 mmHg 71%
15:00 +22°C° 0.1 mm 4 m/s 751 mmHg 68%
16:00 +21°C° 0.2 mm 3 m/s 751 mmHg 71%
17:00 +21°C° 0.2 mm 2 m/s 751 mmHg 73%
18:00 +21°C° 0.2 mm 2 m/s 751 mmHg 76%
19:00 +20°C° 0.1 mm 1 m/s 751 mmHg 79%
20:00 +19°C° 0.1 mm 1 m/s 751 mmHg 82%
21:00 +18°C° 0.1 mm 1 m/s 751 mmHg 85%
22:00 +18°C° 0 mm 1 m/s 751 mmHg 86%
23:00 +16°C° 0 mm 1 m/s 751 mmHg 88%

Poimâine, 26 Iulie, Luni

Timp Temperatura Precipitaţii Vânt Presiune Umiditate
00:00 +16°C° 0 mm 1 m/s 752 mmHg 89%
01:00 +15°C° 0 mm 1 m/s 751 mmHg 89%
02:00 +15°C° 0 mm 1 m/s 751 mmHg 90%
03:00 +15°C° 0 mm 1 m/s 751 mmHg 91%
04:00 +15°C° 0 mm 1 m/s 752 mmHg 89%
05:00 +15°C° 0 mm 1 m/s 752 mmHg 87%
06:00 +16°C° 0 mm 1 m/s 752 mmHg 85%
07:00 +18°C° 0 mm 1 m/s 752 mmHg 79%
08:00 +19°C° 0 mm 2 m/s 752 mmHg 72%
09:00 +20°C° 0 mm 2 m/s 752 mmHg 66%
10:00 +23°C° 0 mm 2 m/s 752 mmHg 62%
11:00 +24°C° 0 mm 2 m/s 752 mmHg 58%
12:00 +25°C° 0 mm 3 m/s 752 mmHg 54%
13:00 +25°C° 0 mm 3 m/s 752 mmHg 53%
14:00 +25°C° 0 mm 3 m/s 752 mmHg 51%
15:00 +26°C° 0 mm 3 m/s 751 mmHg 50%
16:00 +25°C° 0.2 mm 3 m/s 751 mmHg 58%
17:00 +24°C° 0.2 mm 3 m/s 751 mmHg 66%
18:00 +22°C° 0.2 mm 3 m/s 751 mmHg 74%
19:00 +20°C° 0.1 mm 3 m/s 751 mmHg 79%
20:00 +19°C° 0.1 mm 3 m/s 752 mmHg 84%
21:00 +18°C° 0.1 mm 2 m/s 752 mmHg 89%
22:00 +17°C° 0.1 mm 2 m/s 752 mmHg 89%
23:00 +17°C° 0.1 mm 2 m/s 752 mmHg 88%

27 Iulie, Marţi

Timp Temperatura Precipitaţii Vânt Presiune Umiditate
00:00 +16°C° 0.1 mm 1 m/s 752 mmHg 88%
01:00 +16°C° 0.2 mm 1 m/s 752 mmHg 88%
02:00 +16°C° 0.2 mm 2 m/s 752 mmHg 87%
03:00 +16°C° 0.2 mm 2 m/s 751 mmHg 87%
04:00 +16°C° 0 mm 1 m/s 752 mmHg 86%
05:00 +16°C° 0 mm 1 m/s 752 mmHg 85%
06:00 +16°C° 0 mm 1 m/s 752 mmHg 85%
07:00 +19°C° 0 mm 1 m/s 752 mmHg 80%
08:00 +19°C° 0 mm 2 m/s 752 mmHg 76%
09:00 +20°C° 0 mm 2 m/s 752 mmHg 71%
10:00 +21°C° 0.2 mm 2 m/s 752 mmHg 67%
11:00 +23°C° 0.2 mm 1 m/s 752 mmHg 63%
12:00 +24°C° 0.2 mm 1 m/s 752 mmHg 59%
13:00 +25°C° 0.4 mm 1 m/s 751 mmHg 57%
14:00 +25°C° 0.4 mm 2 m/s 751 mmHg 56%
15:00 +25°C° 0.4 mm 2 m/s 751 mmHg 54%
16:00 +24°C° 0.8 mm 3 m/s 751 mmHg 61%
17:00 +22°C° 0.8 mm 4 m/s 751 mmHg 68%
18:00 +21°C° 0.8 mm 4 m/s 751 mmHg 75%
19:00 +19°C° 0.5 mm 4 m/s 751 mmHg 81%
20:00 +18°C° 0.5 mm 4 m/s 752 mmHg 86%
21:00 +15°C° 0.5 mm 4 m/s 752 mmHg 92%
22:00 +14°C° 0 mm 4 m/s 752 mmHg 92%
23:00 +13°C° 0 mm 3 m/s 752 mmHg 92%

28 Iulie, Miercuri

Timp Temperatura Precipitaţii Vânt Presiune Umiditate
00:00 +12°C° 0 mm 3 m/s 753 mmHg 92%
01:00 +12°C° 0 mm 4 m/s 752 mmHg 93%
02:00 +12°C° 0 mm 4 m/s 752 mmHg 93%
03:00 +12°C° 0 mm 4 m/s 752 mmHg 94%
04:00 +12°C° 0 mm 4 m/s 752 mmHg 93%
05:00 +13°C° 0 mm 4 m/s 753 mmHg 93%
06:00 +13°C° 0 mm 4 m/s 753 mmHg 92%
07:00 +14°C° 0.1 mm 4 m/s 753 mmHg 85%
08:00 +16°C° 0.1 mm 5 m/s 753 mmHg 78%
09:00 +17°C° 0.1 mm 5 m/s 753 mmHg 71%
10:00 +19°C° 0 mm 5 m/s 753 mmHg 64%
11:00 +20°C° 0 mm 5 m/s 753 mmHg 57%
12:00 +21°C° 0 mm 6 m/s 754 mmHg 49%
13:00 +21°C° 0 mm 6 m/s 754 mmHg 50%
14:00 +21°C° 0 mm 6 m/s 754 mmHg 51%
15:00 +21°C° 0 mm 6 m/s 754 mmHg 52%
16:00 +20°C° 0 mm 6 m/s 754 mmHg 56%
17:00 +20°C° 0 mm 5 m/s 754 mmHg 60%
18:00 +19°C° 0 mm 5 m/s 754 mmHg 64%
19:00 +18°C° 0 mm 4 m/s 754 mmHg 70%
20:00 +16°C° 0 mm 3 m/s 754 mmHg 77%
21:00 +13°C° 0 mm 3 m/s 754 mmHg 83%
22:00 +13°C° 0 mm 3 m/s 754 mmHg 86%
23:00 +12°C° 0 mm 3 m/s 753 mmHg 90%

29 Iulie, Joi

Timp Temperatura Precipitaţii Vânt Presiune Umiditate
00:00 +12°C° 0 mm 3 m/s 753 mmHg 93%
01:00 +12°C° 0 mm 4 m/s 752 mmHg 94%
02:00 +12°C° 0 mm 4 m/s 752 mmHg 95%
03:00 +13°C° 0 mm 5 m/s 751 mmHg 96%
04:00 +13°C° 0.1 mm 5 m/s 751 mmHg 94%
05:00 +14°C° 0.1 mm 6 m/s 750 mmHg 92%
06:00 +15°C° 0.1 mm 6 m/s 750 mmHg 91%
07:00 +16°C° 0.1 mm 7 m/s 750 mmHg 84%
08:00 +17°C° 0.1 mm 7 m/s 749 mmHg 77%
09:00 +18°C° 0.1 mm 8 m/s 749 mmHg 70%
10:00 +20°C° 0.1 mm 8 m/s 749 mmHg 67%
11:00 +19°C° 0.1 mm 9 m/s 748 mmHg 64%
12:00 +21°C° 0.1 mm 9 m/s 748 mmHg 61%
13:00 +20°C° 0.6 mm 8 m/s 748 mmHg 68%
14:00 +18°C° 0.6 mm 8 m/s 748 mmHg 75%
15:00 +17°C° 0.6 mm 7 m/s 748 mmHg 81%
16:00 +17°C° 0.4 mm 7 m/s 748 mmHg 82%
17:00 +17°C° 0.4 mm 7 m/s 748 mmHg 83%
18:00 +16°C° 0.4 mm 7 m/s 747 mmHg 84%
19:00 +15°C° 0.1 mm 5 m/s 748 mmHg 87%
20:00 +14°C° 0.1 mm 4 m/s 748 mmHg 91%
21:00 +13°C° 0.1 mm 3 m/s 748 mmHg 94%
22:00 +12°C° 0 mm 3 m/s 748 mmHg 93%
23:00 +12°C° 0 mm 3 m/s 748 mmHg 93%
Arată mai mult

Formular de consimțământ

Meteoprog și furnizorii noștri de servicii pot stoca și accesa date personale, precum cookies, identificatori de dispozitiv sau alte tehnologii similare pe dispozitivul dumneavoastră și procesa astfel de date pentru a personaliza conținutul și reclamele, dar și pentru a oferi caracteristici de social media și pentru a analiza traficul.

  • Stocarea și/sau accesarea informațiilor pe dispozitivul dumneavoastră

    Cookies, identificatori de dispozitiv sau alte informații pot fi stocate sau accesate pe dispozitiv în scopurile indicate mai sus.

  • Reclame și conținut personalizat, evaluarea reclamelor și a conținutului, informații despre audiențe și dezvoltarea produselor

    Reclamele și conținutul pot fi personalizate pe baza unui profil. Pot fi adăugate date suplimentare pentru a personaliza mai bine reclamele și conținutul. Performanța reclamelor și conținutului poate fi măsurată. Pot fi obținute informații despre utilizatorii care au văzut reclamele și conținutul. Aceste date pot fi utilizate pentru a dezvolta sau îmbunătăți experiența utilizatorilor, sistemele și software-ul.

Dând clic pe ‘Sunt de acord’, permiteți utilizarea cookie-urilor menționate, a identificatorilor de dispozitiv, balizelor web sau altor tehnologii similare. Setările pot fi modificate din browser-ul dispozitivului dumneavoastră.

În anumite scopuri, interesele legitime pot prima asupra consimțământului. Puteți citi mai multe informații în acest sens în Politica privind Confidențialitatea Datelor și Cookie.